Tracking 28520 objects as of 29-Feb-2024
HD Live streaming from Space Station
objects crossing your sky now

ONEWEB-0570

Track ONEWEB-0570 now!
10-day predictions
ONEWEB-0570 is classified as:


NORAD ID: 55149
Int'l Code: 2023-004K
Perigee: 1,195.5 km
Apogee: 1,198.2 km
Inclination: 87.9 °
Period: 109.2 minutes
Semi major axis: 7567 km
RCS: Unknown
Launch date: January 10, 2023
Source: United Kingdom (UK)
Launch site: AIR FORCE WESTERN TEST RANGE (AFWTR)
Your satellite tracking list
Your tracking list is empty




NASA's NSSDC Master Catalog

Two Line Element Set (TLE):
1 55149U 23004K   24059.78044448 -.00000001  00000-0 -34370-4 0  9996
2 55149  87.9226 142.5838 0001796 126.2946 233.8352 13.18685014 59067
Source of the keplerian elements: AFSPC